FW3031 Weather Reports


Display with metric or nautical units.
time (UTC)temp
F
wind
direction
speed
MPH
gust
MPH
rain 1hr
in
rain 24hr
in
rain mn
in
humidity
%
barometer
mb
20260902041604 68 0 0.0 1.0 0.44 0.71 0.71 92 1017.9
20260902041530 68 190 0.0 1.0 0.46 0.71 0.71 93 1019.7
20260902041017 68 190 0.0 1.0 0.65 0.70 0.70 92 1019.4
20260902040517 67 190 0.0 0.0 0.65 0.69 0.69 91 1019.3
20260902040113 68 0 0.0 3.0 0.65 0.68 0.68 90 1017.5
20260902040018 67 190 0.0 3.0 0.65 0.69 0.69 91 1019.3
20260902035517 68 190 1.0 3.0 0.65 0.68 0.68 89 1019.3
20260902035016 68 190 0.0 1.0 0.66 0.68 0.68 91 1019.3
20260902034606 68 0 0.0 2.0 0.65 0.66 0.66 90 1017.4
20260902034516 68 190 0.0 2.0 0.65 0.67 0.67 90 1019.2
20260902034020 68 190 0.0 7.0 0.66 0.66 0.66 90 1019.1
20260902033514 68 190 0.0 7.0 0.64 0.64 0.64 89 1019.1
20260902033109 68 0 0.0 9.0 0.61 0.61 0.61 89 1017.3
20260902033014 68 190 0.0 9.0 0.61 0.61 0.61 89 1019.2
20260902032517 68 190 3.0 9.0 0.51 0.51 0.51 87 1019.4
20260902032013 69 190 1.0 7.0 0.43 0.43 0.43 90 1019.3
20260902031605 70 0 0.0 4.0 0.25 0.25 0.25 89 1017.5
20260902031512 70 190 0.0 4.0 0.20 0.20 0.20 88 1019.2
20260902031010 70 190 0.0 7.0 0.06 0.06 0.06 87 1018.7
20260902030509 70 190 2.0 9.0 0.04 0.04 0.04 87 1018.6
20260902030008 71 190 3.0 11.0 0.03 0.03 0.03 85 1018.4
20260902025508 72 190 1.0 15.0 0.02 0.02 0.02 84 1018.1
20260902025007 73 190 3.0 15.0 0.02 0.02 0.02 82 1017.8
20260902024612 74 190 5.0 13.0 0.01 0.01 0.01 79 1016.2
20260902024510 74 190 3.0 13.0 0.01 0.01 0.01 80 1017.8
20260902024006 75 190 2.0 11.0 0.00 0.00 0.00 75 1017.5
20260902023506 76 190 4.0 11.0 0.00 0.00 0.00 71 1017.1
20260902023107 76 190 2.0 10.0 0.00 0.00 0.00 70 1015.2
20260902023015 76 190 2.0 10.0 0.00 0.00 0.00 70 1016.9
20260902022507 76 190 3.0 10.0 0.00 0.00 0.00 69 1016.6
20260902022006 77 190 3.0 9.0 0.00 0.00 0.00 66 1016.3
20260902021605 78 190 3.0 15.0 0.00 0.00 0.00 63 1014.4
20260902021506 78 190 2.0 15.0 0.00 0.00 0.00 63 1016.0
20260902021006 80 190 5.0 15.0 0.00 0.00 0.00 60 1015.8
20260902020507 81 190 4.0 10.0 0.00 0.00 0.00 58 1015.4
20260902020118 82 0 1.0 8.0 0.00 0.00 0.00 56 1013.3
20260902020005 82 190 1.0 6.0 0.00 0.00 0.00 56 1015.0
20260902015506 83 190 1.0 8.0 0.00 0.00 0.00 55 1014.9
20260902015004 83 190 0.0 5.0 0.00 0.00 0.00 52 1014.7
20260902014606 83 190 2.0 5.0 0.00 0.00 0.00 51 1012.7
20260902014504 83 190 2.0 5.0 0.00 0.00 0.00 51 1014.5
20260902014003 84 190 0.0 4.0 0.00 0.00 0.00 50 1014.2
20260902013503 84 190 0.0 2.0 0.00 0.00 0.00 48 1014.0
20260902013106 84 0 0.0 0.0 0.00 0.00 0.00 47 1012.2
20260902013003 84 190 0.0 0.0 0.00 0.00 0.00 48 1013.9
20260902012503 84 190 0.0 3.0 0.00 0.00 0.00 47 1013.7
20260902012003 85 190 0.0 3.0 0.00 0.00 0.00 46 1013.4
20260902011602 85 190 0.0 0.0 0.00 0.00 0.00 46 1011.7
20260902011507 85 190 0.0 0.0 0.00 0.00 0.00 47 1013.3
20260902011003 85 190 0.0 0.0 0.00 0.00 0.00 46 1013.2
20260902010502 85 190 0.0 2.0 0.00 0.00 0.00 46 1013.1
20260902010106 86 190 0.0 5.0 0.00 0.00 0.00 43 1011.6
20260902010005 86 190 0.0 5.0 0.00 0.00 0.00 44 1013.2
20260902005502 86 190 0.0 5.0 0.00 0.00 0.00 44 1013.1
20260902005002 86 190 0.0 2.0 0.00 0.00 0.00 44 1012.9
20260902004609 86 190 0.0 3.0 0.00 0.00 0.00 43 1011.2
20260902004502 86 190 0.0 3.0 0.00 0.00 0.00 43 1012.8
20260902004002 86 190 1.0 3.0 0.00 0.00 0.00 43 1012.7
20260902003501 86 190 0.0 3.0 0.00 0.00 0.00 43 1012.6
20260902003110 87 0 0.0 4.0 0.00 0.00 0.00 42 1011.0
20260902003001 86 190 0.0 4.0 0.00 0.00 0.00 43 1012.5
20260902002500 87 190 1.0 4.0 0.00 0.00 0.00 43 1012.5
20260902002003 87 190 1.0 5.0 0.00 0.00 0.00 43 1012.3
20260902001603 87 190 1.0 6.0 0.00 0.00 0.00 42 1010.6
20260902001502 87 190 1.0 5.0 0.00 0.00 0.00 43 1012.1
20260902001000 87 190 1.0 7.0 0.00 0.00 0.00 43 1012.0
20260902000602 87 190 3.0 7.0 0.00 0.00 0.00 42 1012.0
20260902000104 88 190 2.0 6.0 0.00 0.00 0.00 41 1010.5
20260902000100 87 190 1.0 6.0 0.00 0.00 0.00 42 1012.0
20260902000001 87 190 1.0 6.0 0.00 0.00 0.00 42 1012.0
20260901235559 88 190 2.0 7.0 0.00 0.00 0.00 42 1012.1
20260901235059 88 190 2.0 7.0 0.00 0.00 0.00 42 1012.1
20260901234605 88 190 3.0 10.0 0.00 0.00 0.00 41 1010.5
20260901234559 88 190 2.0 8.0 0.00 0.00 0.00 41 1012.0
20260901234059 88 190 4.0 10.0 0.00 0.00 0.00 39 1011.9
20260901233559 89 190 4.0 9.0 0.00 0.00 0.00 39 1011.9
20260901233106 89 190 3.0 9.0 0.00 0.00 0.00 39 1010.2
20260901233103 89 190 3.0 9.0 0.00 0.00 0.00 39 1011.8
20260901232557 89 190 2.0 9.0 0.00 0.00 0.00 41 1011.8
20260901232058 89 190 3.0 9.0 0.00 0.00 0.00 40 1011.7
20260901231608 90 190 3.0 8.0 0.00 0.00 0.00 39 1010.0
20260901231558 89 190 4.0 8.0 0.00 0.00 0.00 39 1011.5
20260901231056 90 190 2.0 8.0 0.00 0.00 0.00 40 1011.4
20260901230557 90 190 2.0 8.0 0.00 0.00 0.00 40 1011.4
20260901230057 90 190 4.0 8.0 0.00 0.00 0.00 39 1011.4
20260901225557 90 190 3.0 7.0 0.00 0.00 0.00 40 1011.4
20260901225055 91 190 3.0 8.0 0.00 0.00 0.00 40 1011.5
20260901224601 91 190 4.0 8.0 0.00 0.00 0.00 41 1010.0
20260901224556 91 190 3.0 8.0 0.00 0.00 0.00 41 1011.6
20260901224054 91 190 3.0 7.0 0.00 0.00 0.00 40 1011.5
20260901223555 91 190 3.0 7.0 0.00 0.00 0.00 40 1011.7
20260901223105 91 190 3.0 9.0 0.00 0.00 0.00 40 1010.1
20260901223055 91 190 3.0 9.0 0.00 0.00 0.00 41 1011.6
20260901222553 90 190 2.0 9.0 0.00 0.00 0.00 42 1011.6
20260901222053 91 190 5.0 9.0 0.00 0.00 0.00 42 1011.7
20260901221604 91 190 4.0 10.0 0.00 0.00 0.00 41 1010.0
20260901221553 91 190 3.0 9.0 0.00 0.00 0.00 41 1011.6
20260901221053 91 190 5.0 10.0 0.00 0.00 0.00 41 1011.7
20260901220553 92 190 4.0 10.0 0.00 0.00 0.00 42 1011.6
20260901220105 92 190 4.0 10.0 0.00 0.00 0.00 42 1009.9
20260901220052 92 190 2.0 10.0 0.00 0.00 0.00 43 1011.6
20260901215550 92 190 4.0 10.0 0.00 0.00 0.00 42 1011.6
20260901215049 91 190 3.0 10.0 0.00 0.00 0.00 42 1011.8
20260901214610 92 190 0.0 9.0 0.00 0.00 0.00 40 1010.2
20260901214547 92 190 0.0 6.0 0.00 0.00 0.00 41 1011.9
20260901214047 91 190 2.0 9.0 0.00 0.00 0.00 42 1012.0
20260901213547 91 190 5.0 9.0 0.00 0.00 0.00 42 1012.0
20260901213121 92 190 1.0 8.0 0.00 0.00 0.00 40 1010.6
20260901213045 91 190 3.0 8.0 0.00 0.00 0.00 41 1012.1
20260901212545 92 190 4.0 8.0 0.00 0.00 0.00 39 1012.2
20260901212044 92 190 0.0 4.0 0.00 0.00 0.00 36 1012.4
20260901211602 92 190 1.0 6.0 0.00 0.00 0.00 36 1010.7
20260901211542 92 190 0.0 4.0 0.00 0.00 0.00 37 1012.5
20260901211040 91 190 0.0 6.0 0.00 0.00 0.00 36 1012.7
20260901210540 91 190 2.0 7.0 0.00 0.00 0.00 37 1012.8
20260901210109 91 190 0.0 4.0 0.00 0.00 0.00 38 1011.0
20260901210041 91 190 0.0 4.0 0.00 0.00 0.00 38 1012.8
20260901205538 91 190 1.0 5.0 0.00 0.00 0.00 38 1012.9
20260901205037 90 190 0.0 5.0 0.00 0.00 0.00 40 1013.0
20260901204604 90 0 2.0 5.0 0.00 0.00 0.00 39 1011.3
20260901204537 90 190 1.0 5.0 0.00 0.00 0.00 39 1013.0
20260901204034 90 190 3.0 5.0 0.00 0.00 0.00 40 1013.2
20260901203535 90 190 2.0 5.0 0.00 0.00 0.00 41 1013.3
20260901203136 90 190 1.0 4.0 0.00 0.00 0.00 41 1011.7
20260901203032 90 190 2.0 4.0 0.00 0.00 0.00 42 1013.4
20260901202529 89 190 1.0 4.0 0.00 0.00 0.00 42 1013.5
20260901202030 89 190 0.0 4.0 0.00 0.00 0.00 43 1013.7
20260901201606 89 190 1.0 5.0 0.00 0.00 0.00 42 1012.0
20260901201528 89 190 1.0 3.0 0.00 0.00 0.00 44 1013.8
20260901201027 89 190 0.0 7.0 0.00 0.00 0.00 43 1014.0
20260901200526 88 190 2.0 7.0 0.00 0.00 0.00 43 1014.2
20260901200110 88 190 2.0 7.0 0.00 0.00 0.00 45 1012.3
20260901200040 88 190 1.0 6.0 0.00 0.00 0.00 45 1014.2
20260901195524 88 190 1.0 7.0 0.00 0.00 0.00 45 1014.4
20260901195021 88 190 3.0 7.0 0.00 0.00 0.00 45 1014.7
20260901194607 88 190 3.0 10.0 0.00 0.00 0.00 45 1012.8
20260901194520 87 190 2.0 10.0 0.00 0.00 0.00 45 1014.8
20260901194019 88 190 2.0 6.0 0.00 0.00 0.00 46 1014.8
20260901193518 88 190 2.0 7.0 0.00 0.00 0.00 45 1015.0
20260901193127 88 0 2.0 8.0 0.00 0.00 0.00 45 1013.2
20260901193018 87 190 2.0 8.0 0.00 0.00 0.00 46 1015.1
20260901192516 87 190 2.0 7.0 0.00 0.00 0.00 46 1015.2
20260901192017 87 190 3.0 8.0 0.00 0.00 0.00 47 1015.2
20260901191612 87 190 5.0 8.0 0.00 0.00 0.00 47 1013.6
20260901191522 87 190 4.0 8.0 0.00 0.00 0.00 47 1015.5
20260901191019 87 190 3.0 9.0 0.00 0.00 0.00 47 1015.6
20260901190513 87 190 3.0 9.0 0.00 0.00 0.00 48 1015.6
20260901190114 87 190 2.0 6.0 0.00 0.00 0.00 48 1013.8
20260901190012 87 190 2.0 6.0 0.00 0.00 0.00 49 1015.7
20260901185511 87 190 2.0 8.0 0.00 0.00 0.00 48 1015.8
20260901185009 87 190 2.0 8.0 0.00 0.00 0.00 47 1015.9
20260901184606 87 190 4.0 7.0 0.00 0.00 0.00 47 1014.0
20260901184509 86 190 3.0 7.0 0.00 0.00 0.00 48 1015.9
20260901184008 86 190 3.0 6.0 0.00 0.00 0.00 47 1016.1
20260901183507 86 190 3.0 5.0 0.00 0.00 0.00 47 1016.2
20260901183103 86 190 1.0 6.0 0.00 0.00 0.00 47 1014.2
20260901183006 86 190 1.0 6.0 0.00 0.00 0.00 48 1016.2
20260901182504 86 190 2.0 6.0 0.00 0.00 0.00 48 1016.3
20260901182003 85 190 0.0 6.0 0.00 0.00 0.00 49 1016.4
20260901181606 85 190 1.0 5.0 0.00 0.00 0.00 48 1014.4
20260901181502 85 190 2.0 5.0 0.00 0.00 0.00 48 1016.4
20260901181001 85 190 1.0 7.0 0.00 0.00 0.00 48 1016.5
20260901180601 85 190 1.0 7.0 0.00 0.00 0.00 48 1016.6
20260901180104 85 190 1.0 6.0 0.00 0.00 0.00 48 1014.6
20260901175600 85 190 1.0 6.0 0.00 0.00 0.00 48 1016.7
20260901175057 84 190 1.0 7.0 0.00 0.00 0.00 50 1016.8
20260901174608 84 190 3.0 7.0 0.00 0.00 0.00 49 1014.9
20260901174604 84 190 3.0 7.0 0.00 0.00 0.00 49 1016.8
20260901174057 84 190 2.0 6.0 0.00 0.00 0.00 50 1016.9
20260901173600 84 190 3.0 8.0 0.00 0.00 0.00 50 1016.9
20260901173104 84 190 3.0 8.0 0.00 0.00 0.00 48 1015.0
20260901173059 84 190 4.0 8.0 0.00 0.00 0.00 49 1016.9
20260901172555 83 190 0.0 6.0 0.00 0.00 0.00 57 1017.1
20260901172055 84 190 2.0 6.0 0.00 0.00 0.00 55 1017.1
20260901171615 83 0 0.0 4.0 0.00 0.00 0.00 56 1015.2
20260901171553 83 190 0.0 4.0 0.00 0.00 0.00 56 1017.2
20260901171053 83 190 1.0 4.0 0.00 0.00 0.00 56 1017.2
20260901170551 83 190 1.0 4.0 0.00 0.00 0.00 56 1017.3
20260901170145 82 190 0.0 2.0 0.00 0.00 0.00 57 1017.3
20260901170109 82 0 0.0 2.0 0.00 0.00 0.00 57 1015.5
20260901165553 82 190 0.0 2.0 0.00 0.00 0.00 57 1017.3
20260901165053 82 190 0.0 4.0 0.00 0.00 0.00 57 1017.4
20260901164609 82 190 0.0 6.0 0.00 0.00 0.00 57 1015.6
20260901164549 82 190 0.0 4.0 0.00 0.00 0.00 57 1017.4
20260901164048 82 190 0.0 6.0 0.00 0.00 0.00 57 1017.5
20260901163547 81 190 2.0 6.0 0.00 0.00 0.00 58 1017.6
20260901163105 81 0 0.0 4.0 0.00 0.00 0.00 59 1015.7
20260901163046 81 190 0.0 2.0 0.00 0.00 0.00 59 1017.6
20260901162548 80 190 0.0 4.0 0.00 0.00 0.00 61 1017.6
20260901162043 80 190 2.0 4.0 0.00 0.00 0.00 60 1017.7
20260901161602 80 0 0.0 5.0 0.00 0.00 0.00 61 1015.9
20260901161552 80 190 0.0 5.0 0.00 0.00 0.00 61 1017.8
20260901161044 80 190 0.0 5.0 0.00 0.00 0.00 61 1017.9
20260901160542 80 190 0.0 4.0 0.00 0.00 0.00 61 1017.9
20260901160106 79 0 0.0 5.0 0.00 0.00 0.00 61 1016.0
20260901160041 79 190 0.0 1.0 0.00 0.00 0.00 62 1018.0
20260901155539 78 190 0.0 5.0 0.00 0.00 0.00 63 1018.0
20260901155041 78 190 2.0 5.0 0.00 0.00 0.00 63 1018.1
20260901154605 78 190 1.0 3.0 0.00 0.00 0.00 63 1016.2
20260901154538 78 190 0.0 3.0 0.00 0.00 0.00 63 1018.1
20260901154037 78 190 0.0 1.0 0.00 0.00 0.00 63 1018.1
20260901153535 77 190 0.0 4.0 0.00 0.00 0.00 64 1018.1
20260901153108 77 190 1.0 4.0 0.00 0.00 0.00 65 1016.1
20260901153041 77 190 1.0 4.0 0.00 0.00 0.00 65 1018.2
20260901152534 76 190 0.0 4.0 0.00 0.00 0.00 66 1018.2
20260901152032 76 190 1.0 3.0 0.00 0.00 0.00 66 1018.1
20260901151607 76 0 0.0 3.0 0.00 0.00 0.00 67 1015.9
20260901151531 76 190 0.0 2.0 0.00 0.00 0.00 68 1018.0
20260901151030 76 190 0.0 3.0 0.00 0.00 0.00 68 1018.0
20260901150529 75 190 0.0 3.0 0.00 0.00 0.00 68 1017.9
20260901150108 75 0 0.0 3.0 0.00 0.00 0.00 69 1015.7
20260901150030 75 190 0.0 2.0 0.00 0.00 0.00 70 1017.9
20260901145528 75 190 0.0 3.0 0.00 0.00 0.00 71 1017.9
20260901145026 74 190 0.0 2.0 0.00 0.00 0.00 72 1017.9
20260901144611 74 0 0.0 2.0 0.00 0.00 0.00 73 1015.7
20260901144527 74 190 0.0 2.0 0.00 0.00 0.00 73 1017.9
20260901144027 73 190 0.0 2.0 0.00 0.00 0.00 74 1017.9
20260901143527 73 190 0.0 3.0 0.00 0.00 0.00 74 1018.0
20260901143116 73 190 0.0 3.0 0.00 0.00 0.00 74 1015.7
20260901143027 73 190 0.0 3.0 0.00 0.00 0.00 74 1018.1
20260901142528 73 190 0.0 2.0 0.00 0.00 0.00 75 1018.1
20260901142026 73 190 0.0 0.0 0.00 0.00 0.00 75 1018.1
20260901141616 72 0 0.0 0.0 0.00 0.00 0.00 75 1015.7
20260901141535 72 190 0.0 0.0 0.00 0.00 0.00 76 1018.1
20260901141026 72 190 0.0 0.0 0.00 0.00 0.00 76 1018.1
20260901140529 71 190 0.0 0.0 0.00 0.00 0.00 77 1018.2
20260901140107 71 0 0.0 0.0 0.00 0.00 0.00 78 1015.8
20260901140029 71 190 0.0 0.0 0.00 0.00 0.00 78 1018.3
20260901135529 71 190 0.0 0.0 0.00 0.00 0.00 79 1018.3
20260901135033 70 190 0.0 0.0 0.00 0.00 0.00 79 1018.3
20260901134628 70 0 0.0 0.0 0.00 0.00 0.00 79 1015.8
20260901134529 70 190 0.0 0.0 0.00 0.00 0.00 80 1018.3
20260901134024 70 190 0.0 0.0 0.00 0.00 0.00 80 1018.3
20260901133524 69 190 0.0 1.0 0.00 0.00 0.00 82 1018.2
20260901133103 69 0 0.0 1.0 0.00 0.00 0.00 81 1015.7
20260901133023 69 190 0.0 1.0 0.00 0.00 0.00 82 1018.2
20260901132523 69 190 0.0 0.0 0.00 0.00 0.00 82 1018.2
20260901132023 68 190 0.0 0.0 0.00 0.00 0.00 83 1018.2
20260901131612 68 190 0.0 0.0 0.00 0.00 0.00 82 1015.7
20260901131531 68 190 0.0 0.0 0.00 0.00 0.00 83 1018.2
20260901131022 68 190 0.0 0.0 0.00 0.00 0.00 83 1018.1
20260901130521 68 190 0.0 0.0 0.00 0.00 0.00 83 1018.0
20260901130106 68 0 0.0 0.0 0.00 0.00 0.00 82 1015.6
20260901130020 68 190 0.0 0.0 0.00 0.00 0.00 82 1018.0
20260901125519 68 190 0.0 0.0 0.00 0.00 0.00 82 1017.9
20260901125018 68 190 0.0 0.0 0.00 0.00 0.00 82 1017.8
20260901124609 68 0 0.0 0.0 0.00 0.00 0.00 81 1015.5
20260901124517 68 190 0.0 0.0 0.00 0.00 0.00 82 1017.8
20260901124019 68 190 0.0 0.0 0.00 0.00 0.00 82 1017.8
20260901123519 68 190 0.0 0.0 0.00 0.00 0.00 82 1017.7
20260901123101 68 0 0.0 0.0 0.00 0.00 0.00 81 1015.4
20260901123017 68 190 0.0 0.0 0.00 0.00 0.00 81 1017.8
20260901122516 68 190 0.0 0.0 0.00 0.00 0.00 81 1017.8
20260901122015 68 190 0.0 0.0 0.00 0.00 0.00 81 1017.7
20260901121609 68 0 0.0 0.0 0.00 0.00 0.00 81 1015.3
20260901121520 68 190 0.0 0.0 0.00 0.00 0.00 81 1017.6
20260901121015 68 190 0.0 0.0 0.00 0.00 0.00 81 1017.6
20260901120513 69 190 0.0 0.0 0.00 0.00 0.00 81 1017.6
20260901120106 69 0 0.0 0.0 0.00 0.00 0.00 81 1015.3
20260901120012 69 190 0.0 0.0 0.00 0.00 0.00 81 1017.5
20260901115514 69 190 0.0 0.0 0.00 0.00 0.00 81 1017.5
20260901115012 69 190 0.0 0.0 0.00 0.00 0.00 80 1017.4
20260901114604 69 0 0.0 3.0 0.00 0.00 0.00 80 1015.1
20260901114511 69 190 0.0 3.0 0.00 0.00 0.00 80 1017.4
20260901114010 69 190 0.0 3.0 0.00 0.00 0.00 80 1017.3
20260901113510 69 190 0.0 2.0 0.00 0.00 0.00 80 1017.2
20260901113107 69 0 0.0 2.0 0.00 0.00 0.00 79 1015.1
20260901113010 69 190 0.0 2.0 0.00 0.00 0.00 80 1017.2
20260901112509 69 190 0.0 2.0 0.00 0.00 0.00 80 1017.1
20260901112013 69 190 0.0 2.0 0.00 0.00 0.00 80 1017.2
20260901111603 69 0 0.0 2.0 0.00 0.00 0.00 79 1015.0
20260901111509 69 190 0.0 2.0 0.00 0.00 0.00 80 1017.1
20260901111008 69 190 1.0 2.0 0.00 0.00 0.00 79 1017.2
20260901110507 69 190 0.0 2.0 0.00 0.00 0.00 80 1017.2
20260901110107 70 0 0.0 2.0 0.00 0.00 0.00 79 1015.0
20260901110008 69 190 0.0 2.0 0.00 0.00 0.00 79 1017.1
20260901105508 69 190 0.0 2.0 0.00 0.00 0.00 80 1017.2
20260901105007 69 190 0.0 2.0 0.00 0.00 0.00 80 1017.1
20260901104602 69 190 0.0 4.0 0.00 0.00 0.00 80 1015.0
20260901104509 69 190 0.0 3.0 0.00 0.00 0.00 80 1017.1
20260901104006 69 190 0.0 4.0 0.00 0.00 0.00 80 1017.1
20260901103504 70 190 1.0 3.0 0.00 0.00 0.00 80 1017.1
20260901103107 70 0 0.0 0.0 0.00 0.00 0.00 79 1014.9
20260901103005 70 190 0.0 0.0 0.00 0.00 0.00 79 1017.0
20260901102504 70 190 0.0 0.0 0.00 0.00 0.00 79 1016.9
20260901102004 70 190 0.0 0.0 0.00 0.00 0.00 79 1016.9
20260901101606 70 0 0.0 0.0 0.00 0.00 0.00 78 1014.7
20260901101504 70 190 0.0 0.0 0.00 0.00 0.00 79 1016.8
20260901101003 70 190 0.0 0.0 0.00 0.00 0.00 78 1016.9
20260901100504 70 190 0.0 1.0 0.00 0.00 0.00 78 1016.8
20260901100002 70 190 0.0 1.0 0.00 0.00 0.00 78 1016.9
20260901095600 71 190 0.0 0.0 0.00 0.00 0.00 78 1016.9
20260901095058 71 190 0.0 0.0 0.00 0.00 0.00 77 1016.9
20260901094602 71 190 0.0 0.0 0.00 0.00 0.00 76 1016.8
20260901094600 71 0 0.0 0.0 0.00 0.00 0.00 76 1014.7
20260901094057 71 190 0.0 0.0 0.00 0.00 0.00 76 1016.9
20260901093556 71 190 0.0 0.0 0.00 0.00 0.00 76 1017.0
20260901093112 71 0 0.0 0.0 0.00 0.00 0.00 75 1014.7
20260901093056 71 190 0.0 0.0 0.00 0.00 0.00 76 1016.8
20260901092557 71 190 0.0 0.0 0.00 0.00 0.00 75 1016.9
20260901092054 72 190 0.0 0.0 0.00 0.00 0.00 75 1016.9
20260901091604 72 0 0.0 0.0 0.00 0.00 0.00 76 1014.8
20260901091553 72 190 0.0 0.0 0.00 0.00 0.00 76 1017.0
20260901091053 72 190 0.0 0.0 0.00 0.00 0.00 76 1017.0
20260901090552 72 190 0.0 0.0 0.00 0.00 0.00 75 1017.1
20260901090104 72 0 0.0 0.0 0.00 0.00 0.00 75 1015.0
20260901090057 72 190 0.0 0.0 0.00 0.00 0.00 75 1017.0
20260901085551 72 190 0.0 0.0 0.00 0.00 0.00 75 1017.0
20260901085050 72 190 0.0 0.0 0.00 0.00 0.00 74 1017.1
20260901084607 72 0 0.0 0.0 0.00 0.00 0.00 72 1014.9
20260901084050 72 190 0.0 0.0 0.00 0.00 0.00 73 1017.1
20260901083549 72 190 0.0 3.0 0.00 0.00 0.00 73 1017.0
20260901083107 73 0 1.0 3.0 0.00 0.00 0.00 72 1014.9
20260901083050 72 190 0.0 3.0 0.00 0.00 0.00 72 1017.1
20260901082547 73 190 1.0 3.0 0.00 0.00 0.00 73 1017.2
20260901082048 73 190 0.0 0.0 0.00 0.00 0.00 73 1017.2
20260901081603 73 0 0.0 0.0 0.00 0.00 0.00 73 1015.0
20260901081546 73 190 0.0 0.0 0.00 0.00 0.00 73 1017.2
20260901081045 73 190 0.0 0.0 0.00 0.00 0.00 71 1017.3
20260901080548 73 190 0.0 0.0 0.00 0.00 0.00 72 1017.4
20260901080109 73 0 0.0 0.0 0.00 0.00 0.00 71 1015.2
20260901080044 73 190 0.0 0.0 0.00 0.00 0.00 71 1017.3
20260901075543 74 190 0.0 0.0 0.00 0.00 0.00 71 1017.4
20260901075041 74 190 0.0 0.0 0.00 0.00 0.00 71 1017.5
20260901074616 74 0 0.0 0.0 0.00 0.00 0.00 70 1015.3
20260901074541 74 190 0.0 0.0 0.00 0.00 0.00 70 1017.5
20260901074044 74 190 0.0 0.0 0.00 0.00 0.00 69 1017.5
20260901073542 74 190 0.0 0.0 0.00 0.00 0.00 69 1017.5
20260901073105 74 0 0.0 2.0 0.00 0.00 0.00 68 1015.4
20260901073041 74 190 0.0 2.0 0.00 0.00 0.00 69 1017.6
20260901072541 74 190 0.0 2.0 0.00 0.00 0.00 68 1017.6
20260901072041 74 190 0.0 4.0 0.00 0.00 0.00 69 1017.5
20260901071607 74 0 3.0 6.0 0.00 0.00 0.00 68 1015.3
20260901071539 74 190 2.0 6.0 0.00 0.00 0.00 68 1017.5
20260901071039 74 190 2.0 5.0 0.00 0.00 0.00 69 1017.4
20260901070540 74 190 0.0 6.0 0.00 0.00 0.00 69 1017.4
20260901070106 74 190 2.0 6.0 0.00 0.00 0.00 68 1015.4
20260901070039 74 190 2.0 6.0 0.00 0.00 0.00 69 1017.5
20260901065538 74 190 0.0 5.0 0.00 0.03 0.00 70 1017.4
20260901065038 74 190 1.0 3.0 0.00 0.03 0.00 70 1017.4
20260901064603 74 190 0.0 3.0 0.00 0.03 0.00 69 1015.3
20260901064539 74 190 0.0 2.0 0.00 0.03 0.00 70 1017.4
20260901064036 74 190 0.0 3.0 0.00 0.03 0.00 69 1017.3
20260901063537 74 190 0.0 3.0 0.00 0.03 0.00 69 1017.2
20260901063106 74 0 0.0 4.0 0.00 0.03 0.00 69 1015.2
20260901063036 74 190 0.0 4.0 0.00 0.03 0.00 69 1017.2
20260901062535 74 190 1.0 4.0 0.00 0.03 0.00 69 1017.2
20260901062035 74 190 0.0 5.0 0.00 0.03 0.00 69 1017.2
20260901061609 74 190 1.0 4.0 0.00 0.03 0.00 69 1015.3
20260901061542 74 190 1.0 4.0 0.00 0.03 0.00 69 1017.3
20260901061034 74 190 2.0 4.0 0.00 0.03 0.00 69 1017.3
20260901060533 74 190 0.0 2.0 0.00 0.03 0.00 69 1017.3
20260901060111 75 0 0.0 2.0 0.00 0.03 0.00 68 1015.4
20260901060035 74 190 0.0 2.0 0.00 0.03 0.00 68 1017.3
20260901055531 75 190 0.0 3.0 0.00 0.06 0.03 68 1017.3
20260901055030 75 190 0.0 3.0 0.00 0.06 0.03 68 1017.2
20260901054602 75 0 1.0 4.0 0.00 0.05 0.03 68 1015.6
20260901054533 75 190 1.0 4.0 0.00 0.06 0.03 68 1017.4
20260901054031 75 190 0.0 3.0 0.00 0.06 0.03 68 1017.5
20260901053531 75 190 0.0 2.0 0.00 0.06 0.03 68 1017.6
20260901053107 75 0 0.0 8.0 0.00 0.05 0.03 67 1015.9
20260901053030 75 190 0.0 8.0 0.00 0.06 0.03 68 1017.7
20260901052529 75 190 0.0 8.0 0.00 0.06 0.03 68 1017.8
20260901052029 75 190 2.0 7.0 0.00 0.06 0.03 67 1017.9
20260901051607 75 190 1.0 10.0 0.00 0.05 0.03 67 1016.2
20260901051533 75 190 1.0 10.0 0.00 0.06 0.03 68 1018.1
20260901051029 75 190 1.0 10.0 0.00 0.06 0.03 69 1018.3
20260901050529 75 190 1.0 10.0 0.00 0.06 0.03 70 1018.3
20260901050104 75 190 4.0 13.0 0.00 0.05 0.03 70 1016.6
20260901050028 75 190 3.0 13.0 0.00 0.06 0.03 71 1018.4
20260901045527 76 190 3.0 13.0 0.00 0.06 0.03 69 1018.3
20260901045025 77 190 4.0 9.0 0.00 0.06 0.03 68 1018.1
20260901044630 78 190 2.0 5.0 0.00 0.05 0.03 70 1016.2
20260901044532 78 190 1.0 6.0 0.00 0.06 0.03 71 1017.9
20260901044025 78 190 2.0 4.0 0.00 0.06 0.03 71 1017.7
20260901043525 78 190 1.0 5.0 0.00 0.06 0.03 72 1017.6
20260901043103 78 190 0.0 3.0 0.00 0.05 0.03 71 1015.7
20260901043027 78 190 1.0 3.0 0.00 0.06 0.03 72 1017.4
20260901042524 78 190 0.0 3.0 0.00 0.06 0.03 72 1017.3
20260901042024 78 190 1.0 2.0 0.00 0.06 0.03 71 1017.3